Weather reports worldwide

Advertisment
St.Peter-Ording, Germany (10028): temperature & dewpoint: 19.08.2019 08:00:00 - 25.08.2019 08:00:00 (CEST)St.Peter-Ording, Germany (10028): temperature 5cm & temperature -5cm: 19.08.2019 08:00:00 - 25.08.2019 08:00:00 (CEST)St.Peter-Ording, Germany (10028): temperature -20cm & temperature -100cm: 19.08.2019 08:00:00 - 25.08.2019 08:00:00 (CEST)St.Peter-Ording, Germany (10028): wind speed & gusts: 19.08.2019 08:00:00 - 25.08.2019 08:00:00 (CEST)St.Peter-Ording, Germany (10028): wind direction: 19.08.2019 08:00:00 - 25.08.2019 08:00:00 (CEST)St.Peter-Ording, Germany (10028): reduced air pressure: 19.08.2019 08:00:00 - 25.08.2019 08:00:00 (CEST)St.Peter-Ording, Germany (10028): visibility: 19.08.2019 08:00:00 - 25.08.2019 08:00:00 (CEST)St.Peter-Ording, Germany (10028): sunshine duration: 19.08.2019 08:00:00 - 25.08.2019 08:00:00 (CEST)St.Peter-Ording, Germany (10028): precipitation: 19.08.2019 08:00:00 - 25.08.2019 08:00:00 (CEST)
Date & Time tt [°C] td [°C] tt 5cm [°C] tt -5cm [°C] tt -20cm [°C] tt -100cm [°C] ff [km/h] ff [kn] fx [km/h] fx [kn] dd ppp [hPa] vv [km] sd [min] rr [mm]
25.08.2019 08:00:00 - - - - - - - - - - - - - - -
25.08.2019 07:00:00 14,3 13,1 13,6 15,8 19,7 17,4 14 8 18 10 ESE 1021,3 12 0 0,0
25.08.2019 06:00:00 14,3 13,2 13,3 16,1 20,2 17,3 14 8 20 11 ESE 1021,3 11 0 0,0
25.08.2019 05:00:00 14,8 13,5 13,9 16,6 20,6 17,3 16 9 20 11 ESE 1021,3 15 0 0,0
25.08.2019 04:00:00 15,4 13,9 14,6 17,2 21,0 17,3 14 8 20 11 ESE 1021,7 17 0 0,0
25.08.2019 03:00:00 15,8 14,1 14,9 17,7 21,5 17,3 16 9 23 12 ESE 1021,7 20 0 0,0
25.08.2019 02:00:00 16,4 14,1 15,5 18,3 22,1 17,2 15 8 24 13 E 1021,9 23 0 0,0
25.08.2019 01:00:00 17,2 14,2 16,2 19,0 22,7 17,2 17 9 24 13 E 1022,2 26 0 0,0
25.08.2019 00:00:00 17,1 14,0 16,1 19,8 23,3 17,2 16 9 23 13 E 1022,3 32 0 0,0
24.08.2019 23:00:00 17,6 13,8 16,4 21,0 24,0 17,2 14 8 24 13 E 1022,5 39 0 0,0
24.08.2019 22:00:00 18,6 13,5 17,5 22,4 24,7 17,2 15 8 23 12 E 1022,6 51 0 0,0
24.08.2019 21:00:00 20,1 13,7 19,0 24,4 25,3 17,2 17 9 25 14 E 1022,4 46 20 0,0
24.08.2019 20:00:00 22,2 15,2 21,7 27,3 25,7 17,2 19 10 29 16 E 1022,2 53 60 0,0
24.08.2019 19:00:00 24,4 16,3 25,6 30,5 25,8 17,2 19 10 32 18 E 1022,5 42 60 0,0
24.08.2019 18:00:00 25,7 16,9 27,9 33,0 25,5 17,2 21 11 32 17 E 1022,6 44 59 0,0
24.08.2019 17:00:00 27,1 14,1 30,3 35,0 24,9 17,2 16 9 27 15 ESE 1023,0 37 60 0,0
24.08.2019 16:00:00 27,3 14,0 30,7 35,7 24,0 17,2 16 9 29 15 ESE 1023,4 59 60 0,0
24.08.2019 15:00:00 26,9 15,1 31,1 35,4 22,9 17,2 15 8 26 14 ESE 1023,7 48 60 0,0
24.08.2019 14:00:00 26,1 15,1 30,3 34,0 21,7 17,2 16 9 28 15 ESE 1024,2 63 60 0,0
24.08.2019 13:00:00 25,4 15,2 29,2 31,6 20,5 17,2 18 10 29 16 ESE 1024,5 36 60 0,0
24.08.2019 12:00:00 23,5 15,4 26,8 28,8 19,5 17,2 17 9 32 17 E 1025,0 42 60 0,0
24.08.2019 11:00:00 21,6 16,4 24,6 25,3 18,7 17,2 20 11 30 16 E 1025,4 39 60 0,0
24.08.2019 10:00:00 19,6 16,7 21,7 21,5 18,3 17,1 19 10 31 17 ESE 1025,3 28 60 0,0
24.08.2019 09:00:00 17,5 16,3 18,3 18,2 18,2 17,1 15 8 22 12 E 1025,3 17 60 0,0
24.08.2019 08:00:00 15,3 15,0 15,7 15,7 18,3 17,1 13 7 19 10 E 1025,4 4,8 57 0,0
24.08.2019 07:00:00 13,7 13,6 13,2 14,9 18,7 17,1 11 6 15 8 E 1025,5 2,8 0 0,0
24.08.2019 06:00:00 14,1 14,1 13,3 15,1 19,1 17,1 11 6 14 8 E 1025,5 3,4 0 0,0
24.08.2019 05:00:00 13,6 13,6 13,0 15,6 19,5 17,0 9 5 16 9 ESE 1025,6 0,9 0 0,0
24.08.2019 04:00:00 14,0 13,9 13,8 16,2 19,9 17,0 11 6 16 9 ESE 1025,8 0,2 0 0,0
24.08.2019 03:00:00 14,1 14,1 13,5 16,6 20,3 17,0 10 5 12 6 E 1025,8 0,2 0 0,0
24.08.2019 02:00:00 14,5 14,4 13,6 17,1 20,8 17,0 8 5 11 6 E 1025,8 0,2 0 0,0
24.08.2019 01:00:00 15,4 15,2 13,8 17,7 21,4 17,0 8 5 10 6 E 1025,7 0,7 0 0,0
24.08.2019 00:00:00 15,5 15,3 11,9 18,3 22,0 17,0 8 4 10 5 ENE 1025,6 1,7 0 0,0
23.08.2019 23:00:00 15,6 15,2 11,9 19,3 22,7 17,0 5 3 7 4 E 1025,8 4,7 0 0,0
23.08.2019 22:00:00 16,9 16,3 13,1 20,8 23,3 17,0 5 3 9 5 N 1026,1 14 0 0,0
23.08.2019 21:00:00 17,7 16,7 15,8 22,9 23,9 17,0 6 4 8 5 NNW 1026,1 12 25 0,0
23.08.2019 20:00:00 19,2 17,0 19,1 25,6 24,2 17,0 5 3 12 6 W 1025,9 19 60 0,0
23.08.2019 19:00:00 19,6 17,0 21,4 28,3 24,3 17,0 8 4 14 8 W 1025,9 14 60 0,0
23.08.2019 18:00:00 20,3 16,5 23,2 30,9 24,0 17,0 10 6 16 9 W 1026,1 21 60 0,0
23.08.2019 17:00:00 20,3 16,8 23,8 32,2 23,4 17,0 12 7 19 10 W 1026,2 14 60 0,0
23.08.2019 16:00:00 20,4 16,6 24,5 32,6 22,6 17,0 16 9 21 12 W 1026,2 16 60 0,0
23.08.2019 15:00:00 20,5 16,4 25,1 32,3 21,6 17,0 18 10 24 13 WSW 1026,2 16 60 0,0
23.08.2019 14:00:00 20,0 15,9 24,2 30,6 20,7 16,9 19 11 26 14 WSW 1026,3 18 60 0,0
23.08.2019 13:00:00 20,6 15,8 24,5 28,2 19,8 16,9 20 11 27 15 W 1026,3 22 60 0,0
23.08.2019 12:00:00 20,3 15,3 23,5 26,3 19,0 16,9 22 12 29 16 WSW 1026,1 22 60 0,0
23.08.2019 11:00:00 19,6 14,5 22,1 23,8 18,3 16,9 22 12 30 16 WSW 1025,8 33 60 0,0
23.08.2019 10:00:00 18,9 13,9 20,9 20,9 17,9 16,9 23 13 31 17 WSW 1025,8 31 60 0,0
23.08.2019 09:00:00 18,4 13,5 19,4 17,8 17,8 16,9 22 12 30 16 SW 1025,4 32 37 0,0
23.08.2019 08:00:00 17,6 11,8 17,2 16,5 17,9 16,9 24 13 30 16 SW 1025,0 43 4 0,0
23.08.2019 07:00:00 17,2 11,0 16,3 15,4 18,2 16,8 21 11 28 15 SW 1024,5 36 14 0,0
23.08.2019 06:00:00 16,9 11,6 15,9 15,5 18,5 16,8 19 10 30 16 SW 1024,5 30 0 0,0
23.08.2019 05:00:00 16,9 15,8 15,9 15,8 18,8 16,8 16 9 25 13 SSW 1024,6 3,7 0 0,0
23.08.2019 04:00:00 16,9 13,4 16,1 15,8 19,1 16,8 18 10 25 14 SW 1024,7 32 0 0,0
23.08.2019 03:00:00 16,8 14,8 15,1 16,1 19,6 16,8 12 7 19 10 SSW 1024,7 26 0 0,0
23.08.2019 02:00:00 16,9 13,8 15,5 16,5 20,0 16,8 14 7 22 12 WSW 1024,8 31 0 0,0
23.08.2019 01:00:00 17,2 14,0 15,7 16,9 20,6 16,8 16 9 21 11 WSW 1024,8 37 0 0,0
23.08.2019 00:00:00 16,5 13,4 15,1 17,5 21,2 16,7 15 8 19 11 WSW 1024,7 39 0 0,0
22.08.2019 23:00:00 16,4 13,7 13,2 18,3 21,8 16,7 9 5 11 6 SW 1024,7 40 0 0,0
22.08.2019 22:00:00 17,2 13,7 15,0 19,8 22,5 16,7 9 5 18 10 SW 1024,8 32 0 0,0
22.08.2019 21:00:00 17,9 14,2 16,5 21,6 23,0 16,7 13 7 21 11 WSW 1024,4 28 6 0,0
22.08.2019 20:00:00 19,3 13,5 18,9 24,1 23,4 16,7 16 8 20 11 W 1024,1 26 51 0,0
22.08.2019 19:00:00 19,6 13,1 20,1 26,7 23,5 16,7 13 7 18 10 W 1024,2 20 52 0,0
22.08.2019 18:00:00 21,1 12,5 23,1 29,3 23,3 16,8 11 6 18 10 W 1024,2 26 60 0,0
22.08.2019 17:00:00 21,7 11,9 24,5 30,9 22,8 16,8 15 8 25 13 W 1024,2 29 60 0,0
22.08.2019 16:00:00 22,0 12,2 24,8 31,6 22,1 16,8 21 12 26 14 SW 1024,1 29 60 0,0
22.08.2019 15:00:00 21,9 13,4 25,5 31,9 21,1 16,8 20 11 31 17 SW 1024,5 32 60 0,0
22.08.2019 14:00:00 22,0 13,4 25,4 30,8 20,0 16,8 23 12 33 18 SSW 1024,7 36 60 0,0
22.08.2019 13:00:00 20,7 12,8 24,3 28,9 19,0 16,7 23 12 33 18 SSW 1025,0 25 60 0,0
22.08.2019 12:00:00 19,7 12,2 22,6 26,4 18,0 16,7 22 12 32 17 SSW 1025,1 48 60 0,0
22.08.2019 11:00:00 18,9 11,5 20,9 23,2 17,2 16,7 21 11 33 18 S 1025,4 31 60 0,0
22.08.2019 10:00:00 17,8 10,6 18,8 19,9 16,8 16,7 19 10 32 17 S 1025,3 45 60 0,0
22.08.2019 09:00:00 17,1 11,0 18,1 16,8 16,6 16,7 16 9 28 15 SSE 1025,5 37 60 0,0
22.08.2019 08:00:00 16,4 12,4 16,3 14,4 16,8 16,7 13 7 24 13 SSE 1025,8 42 44 0,0
22.08.2019 07:00:00 15,7 11,8 14,3 13,5 17,0 16,7 15 8 23 12 S 1025,9 36 0 0,0
22.08.2019 06:00:00 15,0 12,6 13,6 13,7 17,4 16,7 13 7 21 12 SSE 1025,9 27 0 0,0
22.08.2019 05:00:00 15,1 12,6 13,7 14,0 17,7 16,6 13 7 22 12 SSE 1026,4 27 0 0,0
22.08.2019 04:00:00 15,0 12,1 13,6 14,3 18,1 16,6 13 7 21 12 SSE 1026,8 30 0 0,0
22.08.2019 03:00:00 14,9 11,7 13,4 14,5 18,5 16,6 13 7 20 11 SSE 1027,0 38 0 0,0
22.08.2019 02:00:00 15,0 11,2 13,8 14,9 19,0 16,6 12 7 18 10 SSE 1027,2 42 0 0,0
22.08.2019 01:00:00 14,9 12,6 13,5 15,4 19,5 16,6 11 6 18 10 SSE 1027,4 32 0 0,0
22.08.2019 00:00:00 15,2 12,4 13,2 15,9 20,2 16,6 11 6 16 9 S 1027,5 47 0 0,0
21.08.2019 23:00:00 14,4 11,2 10,8 16,7 20,9 16,6 10 5 14 7 S 1027,6 43 0 0,0
21.08.2019 22:00:00 15,0 11,0 10,7 18,0 21,6 16,6 9 5 11 6 SW 1027,7 44 0 0,0
21.08.2019 21:00:00 16,3 10,8 14,5 20,1 22,2 16,6 9 5 14 8 SW 1027,4 52 29 0,0
21.08.2019 20:00:00 17,5 10,7 17,0 22,8 22,6 16,6 11 6 17 9 WSW 1027,3 47 60 0,0
21.08.2019 19:00:00 18,7 11,6 20,1 25,7 22,7 16,6 13 7 18 10 WSW 1027,4 65 60 0,0
21.08.2019 18:00:00 18,9 11,8 21,2 27,8 22,5 16,6 12 7 21 12 WSW 1027,6 41 52 0,0
21.08.2019 17:00:00 19,2 11,9 22,3 29,9 22,0 16,6 13 7 18 10 WSW 1027,6 46 60 0,0
21.08.2019 16:00:00 18,9 12,1 22,7 29,1 21,4 16,6 14 7 22 12 WSW 1027,8 47 46 0,0
21.08.2019 15:00:00 19,0 12,3 23,3 30,0 20,6 16,6 19 10 30 16 WSW 1027,7 45 54 0,0
21.08.2019 14:00:00 18,4 12,7 21,5 29,0 19,7 16,6 23 13 31 17 SW 1027,7 44 50 0,0
21.08.2019 13:00:00 19,0 11,1 23,2 28,4 18,7 16,6 18 10 24 13 W 1027,6 50 57 0,0
21.08.2019 12:00:00 18,2 11,4 22,0 26,5 17,8 16,6 13 7 20 11 W 1027,5 41 60 0,0
21.08.2019 11:00:00 18,1 11,3 20,9 23,2 17,1 16,6 11 6 21 11 W 1027,2 45 53 0,0
21.08.2019 10:00:00 16,9 12,3 19,0 20,7 16,6 16,6 18 10 27 15 NW 1026,9 17 59 0,0
21.08.2019 09:00:00 17,2 11,6 18,8 16,9 16,4 16,6 13 7 22 12 NW 1026,5 66 46 0,0
21.08.2019 08:00:00 15,7 12,0 14,9 14,6 16,6 16,5 20 11 30 16 NW 1026,0 51 25 0,0
21.08.2019 07:00:00 15,7 11,9 15,1 14,0 16,8 16,5 22 12 35 19 WNW 1025,3 49 7 0,0
21.08.2019 06:00:00 15,6 12,0 14,8 14,2 17,0 16,5 29 16 47 26 W 1024,9 42 0 0,1
21.08.2019 05:00:00 15,8 11,6 14,6 14,6 17,2 16,5 34 18 45 24 W 1024,5 38 0 0,1
21.08.2019 04:00:00 16,2 11,7 15,4 14,7 17,6 16,5 29 16 39 21 W 1024,3 38 0 0,0
21.08.2019 03:00:00 16,1 11,0 15,1 14,6 17,9 16,5 30 16 40 22 W 1024,0 47 0 0,0
21.08.2019 02:00:00 16,3 11,1 15,5 15,0 18,3 16,5 27 15 37 20 W 1024,0 38 0 0,0
21.08.2019 01:00:00 16,3 11,0 15,2 15,5 18,8 16,5 24 13 34 18 W 1023,9 33 0 0,0
21.08.2019 00:00:00 16,5 11,8 15,5 16,2 19,2 16,5 21 12 29 16 WNW 1023,5 45 0 0,0
20.08.2019 23:00:00 16,2 11,7 15,1 16,3 19,8 16,5 19 10 28 15 W 1023,3 41 0 0,0
20.08.2019 22:00:00 16,4 12,4 15,2 17,6 20,4 16,5 19 10 34 18 WNW 1023,1 41 0 0,0
20.08.2019 21:00:00 17,0 12,6 16,0 18,8 21,0 16,5 18 10 27 15 W 1022,8 40 1 0,0
20.08.2019 20:00:00 17,4 12,0 17,1 21,3 21,4 16,5 17 9 26 14 W 1022,1 39 50 0,0
20.08.2019 19:00:00 17,6 12,3 18,2 23,1 21,6 16,5 16 9 23 13 W 1022,1 44 25 0,0
20.08.2019 18:00:00 18,0 10,9 20,0 26,4 21,5 16,5 19 10 30 16 W 1021,8 42 54 0,0
20.08.2019 17:00:00 19,3 12,4 21,6 27,4 21,1 16,5 19 10 28 15 W 1021,6 39 47 0,0
20.08.2019 16:00:00 18,7 12,4 22,0 29,5 20,4 16,5 18 10 26 14 W 1021,2 45 56 0,0
20.08.2019 15:00:00 19,2 12,9 23,0 29,1 19,6 16,5 16 8 26 14 W 1021,0 33 57 0,0
20.08.2019 14:00:00 19,0 13,3 22,0 27,0 18,8 16,5 22 12 38 20 W 1020,6 32 53 0,0
20.08.2019 13:00:00 19,4 13,9 22,7 26,0 17,9 16,5 29 15 37 20 WSW 1020,3 27 60 0,0
20.08.2019 12:00:00 18,7 14,5 21,4 23,7 17,2 16,5 28 15 37 20 WSW 1020,0 25 57 0,0
20.08.2019 11:00:00 18,4 13,9 20,2 20,8 16,7 16,5 28 15 37 20 WSW 1019,3 34 44 0,0
20.08.2019 10:00:00 17,5 13,8 18,3 18,2 16,4 16,5 27 14 37 20 WSW 1018,9 33 22 0,0
20.08.2019 09:00:00 17,3 14,2 18,3 17,3 16,2 16,5 30 16 43 23 WSW 1018,2 31 51 0,0
20.08.2019 08:00:00 16,3 13,9 16,1 15,5 16,2 16,5 31 17 42 23 WSW 1017,5 29 12 0,0
20.08.2019 07:00:00 16,2 13,9 15,9 14,9 16,3 16,5 27 15 41 22 WSW 1017,1 31 0 0,0
20.08.2019 06:00:00 15,9 13,2 15,0 14,5 16,4 16,5 30 16 41 22 WSW 1016,8 29 0 0,0
20.08.2019 05:00:00 16,6 13,4 16,0 14,8 16,6 16,5 27 15 37 20 SW 1016,6 22 0 0,0
20.08.2019 04:00:00 16,4 12,4 15,3 14,5 16,8 16,5 22 12 33 18 SW 1016,7 28 0 0,0
20.08.2019 03:00:00 16,8 13,4 16,0 14,6 17,0 16,5 26 14 37 20 WSW 1016,5 24 0 0,0
20.08.2019 02:00:00 15,4 11,7 13,7 14,6 17,3 16,5 21 12 52 28 W 1016,5 31 0 0,1
20.08.2019 01:00:00 16,1 13,8 15,0 15,0 17,6 16,5 13 7 44 24 SW 1016,3 18 0 0,0
20.08.2019 00:00:00 16,6 12,2 16,2 15,5 18,0 16,5 31 17 49 26 W 1016,2 21 0 0,0
19.08.2019 23:00:00 16,9 12,9 15,9 16,0 18,4 16,5 22 12 39 21 WSW 1015,9 28 0 0,0
19.08.2019 22:00:00 17,5 14,2 16,5 16,4 18,9 16,5 30 16 39 21 W 1015,7 25 0 0,0
19.08.2019 21:00:00 17,5 13,5 16,7 17,4 19,3 16,5 32 17 45 24 W 1015,4 25 6 0,0
19.08.2019 20:00:00 17,9 13,2 17,7 19,3 19,6 16,5 31 17 45 24 W 1015,0 25 40 0,0
19.08.2019 19:00:00 17,8 11,5 17,9 21,3 19,7 16,5 39 21 49 26 W 1014,6 27 54 0,0
19.08.2019 18:00:00 19,5 13,1 20,9 23,4 19,6 16,5 32 17 44 24 W 1014,3 25 60 0,0
19.08.2019 17:00:00 19,8 13,1 21,8 24,5 19,2 16,5 35 19 50 27 W 1014,0 26 59 0,0
19.08.2019 16:00:00 19,9 13,3 21,9 23,7 18,9 16,5 35 19 51 28 W 1013,8 20 31 0,0
19.08.2019 15:00:00 19,8 12,7 21,7 24,1 18,4 16,6 41 22 53 29 WSW 1013,1 30 45 0,0
19.08.2019 14:00:00 19,5 13,5 22,0 22,7 17,9 16,6 39 21 55 30 WSW 1012,6 22 35 0,0
19.08.2019 13:00:00 18,9 13,8 20,5 21,7 17,4 16,6 40 22 54 29 WSW 1011,9 18 36 0,0
19.08.2019 12:00:00 17,9 13,6 19,5 21,0 16,9 16,6 38 20 51 27 SW 1011,4 22 56 0,0
19.08.2019 11:00:00 17,3 14,0 18,9 19,4 16,5 16,6 33 18 49 27 SW 1010,8 23 44 0,0
19.08.2019 10:00:00 16,4 14,0 16,9 17,4 16,3 16,6 37 20 48 26 SW 1010,4 20 6 0,0
19.08.2019 09:00:00 16,5 14,0 16,9 16,6 16,1 16,6 37 20 49 26 SW 1009,8 22 0 0,0
19.08.2019 08:00:00 16,6 14,5 16,5 15,8 16,1 16,6 32 17 46 25 WSW 1009,5 19 0 0,0

tt = temperature
td = dewpoint
tt 5cm = temperature 5cm
tt -5cm = temperature -5cm
tt -20cm = temperature -20cm
tt -100cm = temperature -100cm
ff = wind speed
fx = gusts
dd = wind direction
ppp = reduced air pressure
vv = visibility
sd = sunshine duration
rr = precipitation

Next stations